This demonstration page uses our WeatherBlox Daily Observations layout. Learn more.

Left ArrowRight Arrow

Hourly Observations for January 24, 2018

Temp ( °F °C ) Dew Point ( °F °C ) Humidity (%) Winds ( mph kmh ) Pressure ( in mb ) Visibility ( mi km ) Precip ( " mm )
12:53 am 00:53 Cloudy 48 8.9 45 7.2 89 89 Calm 30.12 1020 10 16 0.00 0.00
1:00 am 01:00 Cloudy 48 8.9 45 7.2 89 89 Calm 30.12 1020 10 16 0.00 0.00
1:53 am 01:53 Cloudy 48 8.9 44 6.7 86 86 Calm 30.11 1020 10 16 0.00 0.00
2:44 am 02:44 Cloudy 48 8.9 45 7.2 89 89 Calm 30.09 1019 10 16 0.00 0.00
2:53 am 02:53 Cloudy 48 8.9 45 7.2 89 89 Calm 30.09 1019 10 16 0.00 0.00
3:53 am 03:53 Cloudy 48 8.9 45 7.2 89 89 Calm 30.07 1018 10 16 0.00 0.00
4:05 am 04:05 Cloudy 47 8.3 45 7.2 93 93 Calm 30.06 1018 10 16 0.00 0.00
4:48 am 04:48 Cloudy 46 8 45 7 93 93 Calm 30.06 1018 10 16 0.00 0.00
4:53 am 04:53 Cloudy 48 8.9 45 7.2 89 89 Calm 30.06 1018 10 16 0.00 0.00
5:00 am 05:00 Cloudy 48 8.9 44 6.7 86 86 S 5 7 30.06 1018 10 16 0.00 0.00
5:53 am 05:53 Cloudy 48 8.9 45 7.2 89 89 S 8 13 30.04 1017 10 16 0.00 0.00
6:17 am 06:17 Cloudy 48 8.9 45 7.2 89 89 SSW 5 7 30.03 1017 10 16 0.00 0.00
6:53 am 06:53 Cloudy 48 8.9 45 7.2 89 89 S 6 9 30.01 1016 10 16 0.00 0.00
7:53 am 07:53 Cloudy 48 8.9 46 7.8 93 93 S 8 13 29.99 1016 7 11 0.00 0.00
8:53 am 08:53 Cloudy with Mist and Fog 49 9.4 46 7.8 90 90 S 16 26 29.98 1015 5 8 0.00 0.00
9:53 am 09:53 Mostly Cloudy with Mist and Fog 50 10 46 7.8 86 86 SSE 28 44 29.94 1014 6 10 0.00 0.00
10:00 am 10:00 Partly Cloudy with Mist and Fog 50 10 46 7.8 86 86 S 22 35 29.94 1014 6 10 0.00 0.00
10:53 am 10:53 Cloudy 51 10.6 44 6.7 77 77 S 25 41 29.93 1014 9 14 0.00 0.00
11:19 am 11:19 Cloudy with Light Rain 50 10 46 7.8 86 86 WSW 14 22 29.97 1015 4 6 0.01 0.25
11:27 am 11:27 Cloudy with Heavy Rain 48 8.9 46 7.8 93 93 WSW 15 24 29.97 1015 3 4 0.02 0.51
11:53 am 11:53 Cloudy with Rain 47 8.3 45 7.2 93 93 SW 13 20 29.97 1015 3 4 0.16 4.06
12:53 pm 12:53 Cloudy with Rain 47 8.3 46 7.8 97 97 WSW 6 9 29.94 1014 4 6 0.16 4.06
1:53 pm 13:53 Cloudy with Light Rain 47 8.3 45 7.2 93 93 SSE 15 24 29.88 1012 6 10 0.11 2.79
2:28 pm 14:28 Cloudy with Light Rain 48 8.9 46 7.8 93 93 S 12 19 29.88 1012 6 10 0.02 0.51
2:53 pm 14:53 Cloudy with Light Rain 49 9.4 46 7.8 90 90 SSW 13 20 29.85 1011 7 11 0.03 0.76
3:53 pm 15:53 Cloudy 49 9.4 47 8.3 93 93 SSW 12 19 29.85 1011 7 11 0.00 0.03
4:53 pm 16:53 Cloudy with Rain 49 9.4 47 8.3 93 93 SSW 10 17 29.87 1011 2 3 0.05 1.27
5:06 pm 17:06 Cloudy with Light Rain 49 9.4 47 8.3 93 93 SSW 9 15 29.91 1013 4 6 0.01 0.25
5:14 pm 17:14 Cloudy with Light Rain 49 9.4 47 8.3 93 93 SSW 10 17 29.91 1013 2 3 0.01 0.25
5:53 pm 17:53 Cloudy with Mist and Fog 49 9.4 46 7.8 90 90 S 15 24 29.88 1012 2 3 0.01 0.25
5:58 pm 17:58 Cloudy 49 9.4 46 7.8 90 90 S 20 31 29.91 1013 10 16 0.00 0.00
6:53 pm 18:53 Cloudy 48 8.9 45 7.2 89 89 SSW 8 13 29.88 1012 10 16 0.00 0.00
7:42 pm 19:42 Cloudy 48 8.9 45 7.2 89 89 SW 9 15 29.91 1013 10 16 0.00 0.00
7:53 pm 19:53 Mostly Cloudy 47 8.3 45 7.2 93 93 SW 9 15 29.88 1012 10 16 0.00 0.00
8:53 pm 20:53 Partly Cloudy 45 7.2 43 6.1 93 93 S 8 13 29.89 1012 10 16 0.00 0.00
9:16 pm 21:16 Mostly Clear 45 7.2 44 6.7 97 97 VRB 6 9 29.94 1014 10 16 0.00 0.00
9:53 pm 21:53 Partly Cloudy 44 6.7 43 6.1 96 96 S 6 9 29.90 1012 10 16 0.00 0.00
10:53 pm 22:53 Clear 45 7.2 36 2.2 71 71 SW 6 9 29.91 1013 10 16 0.00 0.00
11:53 pm 23:53 Clear 40 4.4 36 2.2 86 86 Calm 29.92 1013 10 16 0.00 0.00

Powered by AerisWeather